Lid_Strength_Index
3 3 3 4 3 4 4 4 4 4 3 3 3 3 4 4 4 3 4 4 3 2 3 4 2 4 3 3 3 3 7 9 8 7 7 5 6 5 5 5 4 4 5 3 1
3 3 3 4 4 4 4 4 4 4 4 4 4 4 3 4 4 4 1 1 2 3 4 4 5 5 6 5 4 5 7 8 5 5 5 5 5 5 6 6 6 5 3 2 2
3 3 4 4 4 4 4 4 4 4 4 4 4 4 4 4 4 5 -1 0 0 2 2 3 3 5 6 6 6 5 8 6 5 4 4 5 5 4 5 7 6 6 4 2 2
4 4 4 4 4 4 4 4 4 4 4 4 4 4 4 3 9 4 1 1 2 2 2 4 5 6 7 8 6 7 6 5 5 5 5 5 5 5 5 5 4 5 4 3 2
4 4 4 4 4 4 4 4 4 4 4 3 4 4 4 5 6 3 0 1 1 2 4 5 6 6 7 7 6 7 7 6 5 5 5 5 6 6 5 4 4 4 5 4 2
4 4 4 4 4 4 4 4 4 4 3 3 4 4 4 8 3 3 4 3 3 2 3 4 5 5 6 6 7 6 6 6 6 5 5 6 6 5 5 3 4 4 4 5 4
4 4 4 4 4 4 4 4 4 4 3 4 4 4 5 7 4 3 3 4 3 3 3 2 3 5 5 7 5 6 8 7 7 6 6 5 7 7 4 4 4 3 4 3 4
4 5 4 4 4 4 4 4 4 3 4 4 4 3 7 4 3 4 4 3 3 2 2 2 2 3 5 4 6 7 7 10 7 7 7 7 10 6 4 5 5 4 3 3 3
5 5 5 5 4 4 4 5 3 3 3 3 3 4 8 3 5 4 4 5 4 3 1 1 2 4 4 7 8 8 10 9 8 5 6 7 9 6 4 5 5 4 4 3 3
5 5 5 5 5 4 4 5 3 3 3 3 3 6 6 8 5 4 3 3 4 3 3 3 4 6 6 8 12 10 9 8 9 6 6 7 8 6 5 5 5 5 4 3 3
5 5 5 5 5 5 4 4 6 6 6 8 8 8 7 5 3 4 2 3 3 3 6 4 8 9 8 7 8 8 8 9 8 6 7 7 7 6 5 5 5 5 4 3 3
5 5 5 5 5 5 4 6 7 6 9 7 7 7 5 4 5 3 1 4 5 7 5 6 8 6 6 6 8 9 10 10 7 6 7 7 8 6 6 5 5 5 4 4 3
5 6 5 5 5 5 4 6 4 4 7 8 7 6 5 4 5 4 3 4 5 7 7 8 7 6 7 7 9 9 10 9 9 7 7 8 9 7 6 6 5 5 5 4 4
6 6 5 6 6 4 5 4 3 3 8 9 7 5 4 3 5 2 2 3 5 7 7 7 6 7 7 8 8 10 8 9 11 12 15 8 13 8 7 6 6 5 5 5 4
6 6 6 6 4 6 5 4 3 3 13 8 7 3 3 4 4 4 1 3 7 7 7 8 7 8 9 8 7 9 7 8 9 12 12 11 12 9 7 8 6 5 4 4 4
6 6 6 5 4 5 4 3 3 9 13 9 6 7 6 5 5 4 4 3 4 6 6 7 5 6 7 6 6 6 7 8 9 11 19 13 12 12 9 7 6 5 4 4 4
6 6 6 5 7 4 3 3 9 12 8 9 9 7 7 7 6 6 6 7 8 10 10 8 8 6 6 8 6 8 9 15 17 17 17 10 13 11 7 6 5 5 4 4 3
7 8 5 4 4 4 4 6 13 10 10 8 8 7 8 7 7 7 7 8 6 7 10 12 13 9 6 7 9 9 11 17 19 18 14 10 14 10 6 5 4 4 4 3 3
8 3 4 5 4 3 5 10 11 11 9 9 8 9 8 7 7 7 8 8 7 7 13 13 12 7 6 6 8 10 11 8 12 11 14 14 12 8 6 6 5 5 4 4 3
5 4 5 4 3 4 7 12 10 9 8 8 11 9 10 9 9 9 9 7 7 6 6 9 15 8 7 6 7 10 8 14 12 18 18 14 13 15 9 7 6 5 5 4 3
5 6 5 4 3 5 10 11 10 8 8 9 10 10 9 10 9 10 9 7 6 7 6 8 12 11 8 11 11 11 11 11 11 13 19 17 15 8 8 7 6 6 5 4 4
5 8 5 4 7 7 10 10 11 9 7 8 8 8 9 9 10 11 10 8 6 7 10 8 11 14 11 7 7 9 11 11 16 14 12 13 13 8 8 6 6 6 5 4 4
8 7 4 4 10 9 9 9 9 9 8 8 8 7 7 10 14 10 9 6 6 7 10 9 12 16 13 11 9 10 9 10 13 12 15 17 13 9 7 6 5 5 5 4 4
8 9 7 6 7 9 10 10 10 8 8 8 8 7 8 9 9 11 10 8 7 7 7 8 12 15 17 14 11 13 10 9 12 17 14 13 13 9 9 9 7 6 4 4 4
7 9 9 9 9 9 8 9 10 10 8 7 7 8 8 12 10 10 9 9 8 7 8 9 14 12 12 12 12 12 11 10 11 10 13 11 10 8 7 8 8 5 4 5 4
9 10 7 8 8 8 10 10 11 10 9 8 8 7 7 11 10 13 11 10 10 8 9 9 13 12 13 10 11 12 11 11 11 11 11 11 12 7 6 6 6 6 6 6 5
6 6 8 8 8 9 9 10 10 9 8 7 7 7 8 7 6 6 7 7 8 10 10 12 13 14 15 11 11 16 14 13 13 11 13 15 11 8 9 8 7 7 7 6 5